• In Moldova, Republic
  • List of Countries
  • For 7 days
  • Water Temperature
  • Satellite Maps
  • Weather Map
  • Weather Widgets
  • user-avatar
    Login

    Hourly Weather Annaba

    Today, 25 April, Wednesday

    Time Temperature Precipitation Wind Pressure Humidity
    00:00 +23°C° 0 mm 2 mps 759 mmHg 68%
    01:00 +23°C° 0 mm 2 mps 759 mmHg 66%
    02:00 +23°C° 0 mm 2 mps 759 mmHg 63%
    03:00 +21°C° 0 mm 2 mps 759 mmHg 59%
    04:00 +21°C° 0 mm 2 mps 758 mmHg 56%
    05:00 +21°C° 0 mm 2 mps 758 mmHg 56%
    06:00 +23°C° 0 mm 2 mps 758 mmHg 57%
    07:00 +22°C° 0 mm 3 mps 758 mmHg 57%
    08:00 +25°C° 0 mm 2 mps 758 mmHg 52%
    09:00 +27°C° 0 mm 2 mps 758 mmHg 46%
    10:00 +30°C° 0 mm 2 mps 758 mmHg 41%
    11:00 +31°C° 0 mm 2 mps 758 mmHg 38%
    12:00 +33°C° 0 mm 3 mps 758 mmHg 34%
    13:00 +35°C° 0 mm 3 mps 758 mmHg 31%
    14:00 +34°C° 0 mm 4 mps 757 mmHg 35%
    15:00 +33°C° 0 mm 5 mps 757 mmHg 40%
    16:00 +32°C° 0 mm 5 mps 756 mmHg 44%
    17:00 +28°C° 0.9 mm 5 mps 756 mmHg 57%
    18:00 +25°C° 0.9 mm 4 mps 757 mmHg 70%
    19:00 +21°C° 0.9 mm 3 mps 758 mmHg 83%
    20:00 +21°C° 0.2 mm 2 mps 758 mmHg 84%
    21:00 +20°C° 0.2 mm 2 mps 758 mmHg 84%
    22:00 +21°C° 0.2 mm 1 mps 758 mmHg 85%
    23:00 +20°C° 0.1 mm 1 mps 757 mmHg 85%

    Tomorrow, 26 April, Thursday

    Time Temperature Precipitation Wind Pressure Humidity
    00:00 +20°C° 0.1 mm 1 mps 757 mmHg 85%
    01:00 +20°C° 0.1 mm 1 mps 756 mmHg 86%
    02:00 +19°C° 0.4 mm 1 mps 756 mmHg 87%
    03:00 +19°C° 0.4 mm 1 mps 756 mmHg 89%
    04:00 +19°C° 0.4 mm 1 mps 755 mmHg 90%
    05:00 +19°C° 0.2 mm 1 mps 755 mmHg 90%
    06:00 +18°C° 0.2 mm 2 mps 755 mmHg 89%
    07:00 +19°C° 0.2 mm 2 mps 755 mmHg 89%
    08:00 +20°C° 0.2 mm 2 mps 755 mmHg 82%
    09:00 +22°C° 0.2 mm 3 mps 754 mmHg 75%
    10:00 +24°C° 0.2 mm 3 mps 754 mmHg 68%
    11:00 +26°C° 0 mm 4 mps 754 mmHg 62%
    12:00 +27°C° 0 mm 4 mps 753 mmHg 56%
    13:00 +29°C° 0 mm 5 mps 753 mmHg 49%
    14:00 +28°C° 0.3 mm 5 mps 752 mmHg 55%
    15:00 +27°C° 0.3 mm 6 mps 752 mmHg 61%
    16:00 +27°C° 0.3 mm 6 mps 752 mmHg 66%
    17:00 +24°C° 1.9 mm 6 mps 752 mmHg 75%
    18:00 +22°C° 1.9 mm 5 mps 752 mmHg 83%
    19:00 +20°C° 1.9 mm 5 mps 752 mmHg 91%
    20:00 +20°C° 1.1 mm 4 mps 753 mmHg 92%
    21:00 +19°C° 1.1 mm 4 mps 754 mmHg 94%
    22:00 +19°C° 1.1 mm 4 mps 754 mmHg 95%
    23:00 +19°C° 0.1 mm 3 mps 754 mmHg 95%

    Day after tomorrow, 27 April, Friday

    Time Temperature Precipitation Wind Pressure Humidity
    00:00 +19°C° 0.1 mm 3 mps 754 mmHg 96%
    01:00 +18°C° 0.1 mm 2 mps 754 mmHg 96%
    02:00 +18°C° 0.3 mm 3 mps 754 mmHg 96%
    03:00 +18°C° 0.3 mm 3 mps 754 mmHg 96%
    04:00 +18°C° 0.3 mm 3 mps 753 mmHg 96%
    05:00 +18°C° 0.2 mm 3 mps 754 mmHg 96%
    06:00 +18°C° 0.2 mm 2 mps 754 mmHg 95%
    07:00 +18°C° 0.2 mm 2 mps 754 mmHg 95%
    08:00 +19°C° 0.1 mm 2 mps 754 mmHg 93%
    09:00 +19°C° 0.1 mm 2 mps 755 mmHg 92%
    10:00 +19°C° 0.1 mm 2 mps 755 mmHg 90%
    11:00 +19°C° 0.2 mm 3 mps 755 mmHg 90%
    12:00 +19°C° 0.2 mm 3 mps 755 mmHg 91%
    13:00 +19°C° 0.2 mm 3 mps 755 mmHg 91%
    14:00 +19°C° 0.4 mm 4 mps 755 mmHg 91%
    15:00 +19°C° 0.4 mm 4 mps 755 mmHg 91%
    16:00 +19°C° 0.4 mm 4 mps 755 mmHg 91%
    17:00 +19°C° 0.1 mm 4 mps 756 mmHg 92%
    18:00 +18°C° 0.1 mm 4 mps 756 mmHg 92%
    19:00 +18°C° 0.1 mm 4 mps 757 mmHg 92%
    20:00 +18°C° 0.1 mm 3 mps 757 mmHg 93%
    21:00 +17°C° 0.1 mm 3 mps 758 mmHg 93%
    22:00 +17°C° 0.1 mm 3 mps 759 mmHg 94%
    23:00 +16°C° 0.1 mm 3 mps 758 mmHg 94%

    28 April, Saturday

    Time Temperature Precipitation Wind Pressure Humidity
    00:00 +15°C° 0.1 mm 4 mps 758 mmHg 94%
    01:00 +14°C° 0.1 mm 4 mps 758 mmHg 94%
    02:00 +14°C° 0 mm 4 mps 758 mmHg 93%
    03:00 +14°C° 0 mm 4 mps 758 mmHg 93%
    04:00 +13°C° 0 mm 4 mps 757 mmHg 92%
    05:00 +14°C° 0 mm 4 mps 757 mmHg 90%
    06:00 +15°C° 0 mm 4 mps 758 mmHg 88%
    07:00 +16°C° 0 mm 3 mps 758 mmHg 86%
    08:00 +18°C° 0 mm 3 mps 758 mmHg 80%
    09:00 +19°C° 0 mm 3 mps 758 mmHg 74%
    10:00 +21°C° 0 mm 3 mps 758 mmHg 68%
    11:00 +22°C° 0 mm 4 mps 758 mmHg 65%
    12:00 +23°C° 0 mm 4 mps 758 mmHg 62%
    13:00 +23°C° 0 mm 4 mps 758 mmHg 59%
    14:00 +23°C° 0 mm 4 mps 758 mmHg 59%
    15:00 +24°C° 0 mm 3 mps 757 mmHg 60%
    16:00 +24°C° 0 mm 3 mps 757 mmHg 60%
    17:00 +22°C° 0 mm 3 mps 757 mmHg 66%
    18:00 +21°C° 0 mm 2 mps 757 mmHg 72%
    19:00 +20°C° 0 mm 1 mps 757 mmHg 78%
    20:00 +19°C° 0 mm 1 mps 758 mmHg 80%
    21:00 +19°C° 0 mm 1 mps 758 mmHg 82%
    22:00 +17°C° 0 mm 2 mps 759 mmHg 84%
    23:00 +17°C° 0 mm 2 mps 758 mmHg 83%

    29 April, Sunday

    Time Temperature Precipitation Wind Pressure Humidity
    00:00 +17°C° 0 mm 2 mps 758 mmHg 82%
    01:00 +17°C° 0 mm 2 mps 758 mmHg 81%
    02:00 +17°C° 0 mm 2 mps 758 mmHg 80%
    03:00 +17°C° 0 mm 2 mps 757 mmHg 79%
    04:00 +17°C° 0 mm 2 mps 757 mmHg 78%
    05:00 +17°C° 0 mm 2 mps 757 mmHg 77%
    06:00 +18°C° 0 mm 2 mps 757 mmHg 75%
    07:00 +19°C° 0 mm 2 mps 758 mmHg 74%
    08:00 +20°C° 0 mm 3 mps 758 mmHg 72%
    09:00 +22°C° 0 mm 4 mps 759 mmHg 69%
    10:00 +23°C° 0 mm 6 mps 759 mmHg 67%
    11:00 +23°C° 0 mm 6 mps 759 mmHg 69%
    12:00 +22°C° 0 mm 6 mps 759 mmHg 71%
    13:00 +22°C° 0 mm 5 mps 759 mmHg 73%
    14:00 +21°C° 0.1 mm 5 mps 759 mmHg 75%
    15:00 +21°C° 0.1 mm 5 mps 759 mmHg 76%
    16:00 +21°C° 0.1 mm 5 mps 760 mmHg 78%
    17:00 +20°C° 0 mm 4 mps 760 mmHg 82%
    18:00 +19°C° 0 mm 4 mps 760 mmHg 85%
    19:00 +18°C° 0 mm 3 mps 760 mmHg 89%
    20:00 +17°C° 0 mm 3 mps 761 mmHg 90%
    21:00 +17°C° 0 mm 3 mps 761 mmHg 90%
    22:00 +16°C° 0 mm 2 mps 762 mmHg 91%
    23:00 +16°C° 0 mm 2 mps 761 mmHg 91%

    30 April, Monday

    Time Temperature Precipitation Wind Pressure Humidity
    00:00 +15°C° 0 mm 2 mps 761 mmHg 91%
    01:00 +15°C° 0 mm 2 mps 761 mmHg 90%
    02:00 +15°C° 0 mm 2 mps 761 mmHg 90%
    03:00 +15°C° 0 mm 2 mps 761 mmHg 89%
    04:00 +15°C° 0 mm 2 mps 761 mmHg 88%
    05:00 +15°C° 0 mm 2 mps 761 mmHg 85%
    06:00 +16°C° 0 mm 1 mps 761 mmHg 82%
    07:00 +18°C° 0 mm 1 mps 761 mmHg 79%
    08:00 +20°C° 0 mm 1 mps 761 mmHg 73%
    09:00 +22°C° 0 mm 1 mps 761 mmHg 66%
    10:00 +23°C° 0 mm 2 mps 761 mmHg 60%
    11:00 +23°C° 0.1 mm 2 mps 761 mmHg 61%
    12:00 +22°C° 0.1 mm 3 mps 761 mmHg 63%
    13:00 +23°C° 0.1 mm 4 mps 761 mmHg 64%
    14:00 +21°C° 1 mm 4 mps 761 mmHg 71%
    15:00 +20°C° 1 mm 5 mps 760 mmHg 79%
    16:00 +17°C° 1 mm 5 mps 760 mmHg 87%
    17:00 +16°C° 0.8 mm 5 mps 761 mmHg 89%
    18:00 +17°C° 0.8 mm 4 mps 761 mmHg 91%
    19:00 +15°C° 0.8 mm 4 mps 762 mmHg 92%
    20:00 +16°C° 1.6 mm 3 mps 762 mmHg 93%
    21:00 +15°C° 1.6 mm 2 mps 762 mmHg 95%
    22:00 +15°C° 1.6 mm 2 mps 762 mmHg 96%
    23:00 +15°C° 1.5 mm 2 mps 762 mmHg 96%
    Show more